Change the Weather History Date:

Sunday, February 10, 2013

  Actual Average Record
Temperature  
Mean Temperature 16 °F -  
Max Temperature 35 °F 34 °F 51 °F (2001)
Min Temperature -2 °F 16 °F -2 °F (2013)
Degree Days  
Heating Degree Days 48    
Moisture  
Dew Point 1 °F    
Average Humidity 50    
Maximum Humidity 81    
Minimum Humidity 24    
Precipitation  
Precipitation 0.00 in - - ()
Sea Level Pressure  
Sea Level Pressure 30.39 in    
Wind  
Wind Speed 4 mph (NNE)    
Max Wind Speed 7 mph    
Max Gust Speed -    
Visibility 10 miles    
Events      
Averages and records for this station are not official NWS values.
T = Trace of Precipitation, MM = Missing Value Source: NWS Daily Summary

Daily Weather History Graph

Daily Weather History Graph

Search for Another Location

Airport or City:

Trip Planner

Search our weather history database for the weather conditions in past years. The results will help you decide how hot, cold, wet, or windy it might be!

Date:

Astronomy

Feb. 10, 2013 Rise Set
Actual Time 6:53 AM EST 5:17 PM EST
Civil Twilight 6:24 AM EST 5:46 PM EST
Nautical Twilight 5:51 AM EST 6:19 PM EST
Astronomical Twilight 5:18 AM EST 6:52 PM EST
Moon 6:40 AM EST (2/10) 6:06 PM EST (2/10)
Length of Visible Light 11h 22m
Length of Day
10h 24m
New Moon, 0% of the Moon is Illuminated
Feb 10
New Moon
Feb 17
First Quarter
Feb 25
Full
Mar 4
Last Quarter
Mar 11
New

Hourly Weather History & Observations

Time (EST) Temp. Windchill Dew Point Humidity Pressure Visibility Wind Dir Wind Speed Gust Speed Precip Events Conditions
12:53 AM 14.0 °F 5.1 °F -5.1 °F 43% 30.30 in 10.0 mi NNW 5.8 mph - N/A   Clear
1:53 AM 12.9 °F 2.6 °F -5.1 °F 45% 30.31 in 10.0 mi NNW 6.9 mph - N/A   Clear
2:53 AM 15.1 °F 6.4 °F -4.0 °F 43% 30.32 in 10.0 mi NW 5.8 mph - N/A   Clear
3:53 AM 7.0 °F - -6.0 °F 55% 30.34 in 10.0 mi Calm Calm - N/A   Clear
4:53 AM 10.9 °F 0.2 °F -5.1 °F 49% 30.36 in 10.0 mi NNW 6.9 mph - N/A   Clear
5:53 AM 1.9 °F -7.6 °F -6.0 °F 69% 30.38 in 10.0 mi NNE 4.6 mph - N/A   Clear
6:53 AM -2.0 °F - -7.1 °F 79% 30.42 in 10.0 mi Calm Calm - N/A   Clear
7:53 AM -2.9 °F -13.3 °F -9.0 °F 75% 30.45 in 10.0 mi NE 4.6 mph - N/A   Clear
8:53 AM 15.1 °F 7.7 °F -2.9 °F 45% 30.45 in 10.0 mi ENE 4.6 mph - N/A   Clear
9:53 AM 19.0 °F 12.3 °F -2.0 °F 40% 30.46 in 10.0 mi NE 4.6 mph - N/A   Clear
10:53 AM 24.1 °F 19.7 °F 1.0 °F 37% 30.47 in 10.0 mi North 3.5 mph - N/A   Clear
11:53 AM 30.0 °F - -0.0 °F 28% 30.43 in 10.0 mi Calm Calm - N/A   Clear
12:53 PM 35.1 °F - 1.0 °F 24% 30.40 in 10.0 mi Calm Calm - N/A   Clear
1:53 PM 34.0 °F - 10.0 °F 37% 30.38 in 10.0 mi Calm Calm - N/A   Clear
2:53 PM 34.0 °F 31.0 °F 5.0 °F 30% 30.38 in 10.0 mi South 3.5 mph - N/A   Clear
3:53 PM 34.0 °F 29.8 °F 5.0 °F 30% 30.38 in 10.0 mi South 4.6 mph - N/A   Clear
4:53 PM 32.0 °F 28.7 °F 3.9 °F 31% 30.37 in 10.0 mi South 3.5 mph - N/A   Clear
5:53 PM 28.9 °F - 3.9 °F 35% 30.38 in 10.0 mi Calm Calm - N/A   Clear
6:53 PM 21.9 °F - 7.0 °F 53% 30.39 in 10.0 mi Calm Calm - N/A   Clear
7:53 PM 21.0 °F - 8.1 °F 57% 30.39 in 10.0 mi Calm Calm - N/A   Clear
8:53 PM 16.0 °F - 6.1 °F 65% 30.38 in 10.0 mi Calm Calm - N/A   Clear
9:53 PM 12.0 °F - 5.0 °F 73% 30.37 in 10.0 mi Calm Calm - N/A   Clear
10:53 PM 12.0 °F - 6.1 °F 77% 30.38 in 10.0 mi Calm Calm - N/A   Clear
11:53 PM 12.9 °F - 8.1 °F 81% 30.35 in 10.0 mi Calm Calm - N/A   Clear